Weather in Novaya Biryuchevka

Russia / Ulyanovsk Oblast     54°23′55″N   48°06′18″E
temp.,
°C
wind,
m/s
gust,
m/s
humid.,
%
clouds,
%
prec.,
mm/h
press.,
hPa
HPBL,
m
14 april, wed
wed1401:00+9s33675 0.0 103117
04:00+8s22705 0.0 103111
07:00+7se22725 0.0 103016
10:00+12se466110 0.0 1029250
13:00+15se57635 0.0 1027662
16:00+17se57604 0.0 1025812
19:00+14se37705 0.0 1024188
22:00+11se33802 0.0 102435
15 april, thu
thu1501:00+10sse22850 0.0 102322
04:00+9sse22870 0.0 102215
07:00+8sse22865 0.0 102219
10:00+13sse24645 0.0 1021306
13:00+17sse344895 0.0 10201072
16:00+19sse234269 0.0 10191288
19:00+15ese23612 0.0 101850
22:00+13e22645 0.0 101911
16 april, fri
fri1601:00+11e227160 0.0 101812
04:00+9e2277100 0.0 101914
07:00+8ne367991 0.0 102094
10:00+11ene577647 0.0 1021367
13:00+14ene666853 0.0 1022616
16:00+14ne676217 0.0 1022695
19:00+12ne596770 0.0 1023453
22:00+9ne4107575 0.0 1024270
17 april, sat
sat1701:00+7ene4107053 0.0 1024236
04:00+5ne496588 0.0 1025215
07:00+4ne496591 0.0 1026269
10:00+8ene68476 0.0 1027588
13:00+10ne67355 0.0 10271049
16:00+11ene56335 0.0 10271173
19:00+10ene46420 0.0 1027385
22:00+7ne11510 0.0 102811
18 april, sun
sun1801:00+5nne33630 0.0 102835
04:00+4nne37735 0.0 1029135
07:00+3nne38795 0.0 1030295
10:00+7nne46575 0.0 1031896
13:00+10ne56410 0.0 10311245
16:00+8nne89335 0.0 10301792
19:00+10ne464668 0.0 1031695
22:00+7ene37605 0.0 1032202